Weather History for Galena, AK

Change the Weather History Date:

Tuesday, February 19, 2013

  Actual Average Record
Temperature  
Mean Temperature -20 °F -  
Max Temperature -2 °F -2 °F 35 °F (1962)
Min Temperature -38 °F -20 °F -49 °F (1974)
Degree Days  
Heating Degree Days 85    
Moisture  
Dew Point -19 °F    
Average Humidity 69    
Maximum Humidity 75    
Minimum Humidity 62    
Precipitation  
Precipitation 0.00 in - - ()
Sea Level Pressure  
Sea Level Pressure 30.00 in    
Wind  
Wind Speed 2 mph (NE)    
Max Wind Speed 8 mph    
Max Gust Speed -    
Visibility 6 miles    
Events      
Averages and records for this station are not official NWS values.
T = Trace of Precipitation, MM = Missing Value Source: NWS Daily Summary

Daily Weather History Graph

Daily Weather History Graph

Search for Another Location

Airport:

Trip Planner

Search our weather history database for the weather conditions in past years. The results will help you decide how hot, cold, wet, or windy it might be!

Date:

Astronomy

Feb. 19, 2013 Rise Set
Actual Time 9:10 AM AKST 6:13 PM AKST
Civil Twilight 8:19 AM AKST 7:05 PM AKST
Nautical Twilight 7:22 AM AKST 8:02 PM AKST
Astronomical Twilight 6:26 AM AKST 8:58 PM AKST
Moon 11:28 AM AKST (2/19) 6:16 AM AKST (2/19)
Length of Visible Light 10h 45m
Length of Day
9h 03m
Waxing Gibbous, 69% of the Moon is Illuminated
Feb 19
Waxing Gibbous
Feb 25
Full
Mar 4
Last Quarter
Mar 11
New
Mar 19
First Quarter

Hourly Weather History & Observations

Time (AKST) Temp. Windchill Dew Point Humidity Pressure Visibility Wind Dir Wind Speed Gust Speed Precip Events Conditions
12:58 AM -32.1 °F - - N/A% 30.27 in 10.0 mi Calm Calm - N/A   Clear
1:58 AM -33.0 °F - - N/A% 30.23 in 10.0 mi Calm Calm - N/A   Clear
2:58 AM -32.1 °F - - N/A% 30.22 in 10.0 mi Calm Calm - N/A   Clear
3:58 AM -32.1 °F - - N/A% 30.21 in 10.0 mi Calm Calm - N/A   Clear
4:58 AM -35.0 °F - - N/A% 30.20 in 10.0 mi Calm Calm - N/A   Clear
5:58 AM -36.9 °F -55.4 °F - N/A% 30.16 in 4.0 mi ESE 5.8 mph - N/A   Haze
6:58 AM -36.0 °F - - N/A% 30.11 in 10.0 mi Calm Calm - N/A   Clear
7:58 AM -38.0 °F - - N/A% 30.09 in 2.0 mi Calm Calm - N/A   Clear
7:59 AM -38.2 °F -51.5 °F - N/A% 30.07 in 1.8 mi South 3.5 mph - N/A   Clear
8:06 AM -38.2 °F -51.5 °F - N/A% 30.06 in 2.0 mi West 3.5 mph - N/A   Clear
8:23 AM -38.2 °F - - N/A% 30.06 in 4.0 mi Calm Calm - N/A   Haze
8:45 AM -38.2 °F - - N/A% 30.05 in 2.5 mi Calm Calm - N/A   Clear
8:49 AM -38.2 °F -51.5 °F - N/A% 30.05 in 4.0 mi NW 3.5 mph - N/A   Haze
8:58 AM -36.9 °F -55.4 °F - N/A% 30.07 in 10.0 mi NNW 5.8 mph - N/A   Clear
9:10 AM -34.6 °F - - N/A% 30.06 in 1.8 mi Calm Calm - N/A   Clear
9:17 AM -34.6 °F - - N/A% 30.06 in 1.0 mi Calm Calm - N/A   Clear
9:21 AM -36.4 °F - - N/A% 30.06 in 0.8 mi Calm Calm - N/A   Clear
9:30 AM -36.4 °F - - N/A% 30.05 in 1.0 mi Calm Calm - N/A   Clear
9:35 AM -36.4 °F - - N/A% 30.05 in 1.2 mi Calm Calm - N/A   Clear
9:39 AM -36.4 °F - - N/A% 30.05 in 1.0 mi Calm Calm - N/A   Clear
9:46 AM -34.6 °F - - N/A% 30.05 in 1.5 mi Calm Calm - N/A   Clear
9:53 AM -34.6 °F - - N/A% 30.04 in 2.5 mi Calm Calm - N/A   Clear
9:58 AM -35.0 °F - - N/A% 30.07 in 3.0 mi Calm Calm - N/A   Clear
10:38 AM -34.6 °F -47.4 °F - N/A% 30.02 in 1.8 mi East 3.5 mph - N/A   Clear
10:45 AM -34.6 °F -52.6 °F - N/A% 30.01 in 1.0 mi East 5.8 mph - N/A   Clear
10:53 AM -34.6 °F -52.6 °F - N/A% 30.01 in 1.5 mi ESE 5.8 mph - N/A   Clear
10:58 AM -34.1 °F -46.8 °F - N/A% 30.03 in 2.0 mi ESE 3.5 mph - N/A   Clear
11:04 AM -34.6 °F -47.4 °F - N/A% 30.00 in 4.0 mi East 3.5 mph - N/A   Haze
11:58 AM -27.9 °F -39.8 °F -35.0 °F 69% 29.99 in 6.0 mi Variable 3.5 mph - N/A   Haze
12:58 PM -20.9 °F - -29.0 °F 66% 29.96 in 10.0 mi Calm Calm - N/A   Clear
1:58 PM -15.0 °F - -22.0 °F 71% 29.92 in 10.0 mi Calm Calm - N/A   Clear
3:58 PM -2.9 °F -17.7 °F -13.0 °F 62% 29.83 in 10.0 mi NNE 8.1 mph - N/A   Clear
4:58 PM -2.9 °F -17.7 °F -13.0 °F 62% 29.79 in 10.0 mi NNE 8.1 mph - N/A   Clear
5:58 PM -6.0 °F -21.5 °F -14.1 °F 68% 29.77 in 10.0 mi North 8.1 mph - N/A   Clear
6:58 PM -7.1 °F -22.8 °F -15.0 °F 68% 29.74 in 10.0 mi NNE 8.1 mph - N/A   Clear
7:58 PM -8.0 °F -22.5 °F -16.1 °F 68% 29.73 in 10.0 mi NNE 6.9 mph - N/A   Clear
8:58 PM -9.0 °F -25.2 °F -16.1 °F 71% 29.72 in 10.0 mi NNE 8.1 mph - N/A   Clear
9:58 PM -11.0 °F -22.8 °F -18.0 °F 71% 29.70 in 10.0 mi North 4.6 mph - N/A   Clear
10:58 PM -11.0 °F -24.6 °F -17.0 °F 75% 29.69 in 10.0 mi North 5.8 mph - N/A   Clear
11:58 PM -11.9 °F -23.8 °F -18.0 °F 74% 29.67 in 10.0 mi North 4.6 mph - N/A   Clear